Regional Weather Roundup
Issued by NWS

Home | Current Version | Previous Version | Text Only | Print | Product List | Glossary On
Versions: 1 2 3 4 5 6 7 8 9 10 11 12 13 14 15 16 17 18 19 20 21 22 23 24 25 26 27 28 29 30 31 32 33 34 35 36 37 38 39 40 41 42 43 44 45 46 47 48 49 50
000
ASUS45 KBOI 252110
RWRID
WEATHER ROUNDUP FOR IDAHO
NATIONAL WEATHER SERVICE BOISE ID
300 PM MDT FRI JUL 25 2014

NOTE: "FAIR" INDICATES FEW OR NO CLOUDS BELOW 12000 FEET
WITH NO SIGNIFICANT WEATHER AND/OR OBSTRUCTIONS TO VISIBILITY

IDZ012-014-252200-
SOUTHWEST IDAHO


CITY           SKY/WX    TMP DP  RH WIND       PRES   REMARKS
BOISE          SUNNY     80  36  20 W12G20    30.04F
CALDWELL       SUNNY     79  41  25 N8        30.07F
MOUNTAIN HOME  SUNNY     83  31  15 NW14      30.04F
$$

IDZ016-017-252200-
SOUTHCENTRAL IDAHO


CITY           SKY/WX    TMP DP  RH WIND       PRES   REMARKS
BURLEY         SUNNY     78  34  20 W8        30.08F
JEROME         SUNNY     79  33  19 W8        30.09F
TWIN FALLS     SUNNY     80  33  18 W9        30.09F
$$

IDZ019>023-252200-
SOUTHEAST IDAHO


CITY           SKY/WX    TMP DP  RH WIND       PRES   REMARKS
IDAHO FALLS    SUNNY     80  28  15 SW14G21   30.09F HAZE
POCATELLO      SUNNY     81  29  15 SW7G18    30.10F
REXBURG        SUNNY     77  29  17 SW13      30.09F
$$

IDZ006-010-011-018-031-032-252200-
CENTRAL IDAHO MOUNTAINS


CITY           SKY/WX    TMP DP  RH WIND       PRES   REMARKS
MCCALL         SUNNY     72  32  23 MISG      30.13S
HAILEY         MOSUNNY   81  28  15 SW13G18   30.10F
STANLEY          N/A     74  15  10 W8G16     30.18S
SALMON         SUNNY     79  34  19 NW8       30.00F
CHALLIS        SUNNY     82  13   7 VRB6      30.03F
$$

IDZ002-004-006-007-026-252200-
NORTHERN IDAHO


CITY           SKY/WX    TMP DP  RH WIND       PRES   REMARKS
LEWISTON       LGT RAIN  77  44  30 VRB3      30.05F
LOWELL           N/A     82  38  20 S8        30.02F
COEUR D`ALENE  PTSUNNY   72  45  37 SW7       30.07S
MULLAN PASS    CLOUDY    55  41  59 VRB5      30.18S
$$



USA.gov is the U.S. government's official web portal to all federal, state and local government web resources and services.